Change the Weather History Date:

Wednesday, February 15, 2012

  Actual Average Record
Temperature  
Mean Temperature 41 °F -  
Max Temperature 50 °F 50 °F 64 °F (2015)
Min Temperature 32 °F 40 °F 28 °F (2006)
Degree Days  
Heating Degree Days 24    
Moisture  
Dew Point 35 °F    
Average Humidity 88    
Maximum Humidity 100    
Minimum Humidity 62    
Precipitation  
Precipitation 0.01 in - - ()
Sea Level Pressure  
Sea Level Pressure 30.35 in    
Wind  
Wind Speed 5 mph (East)    
Max Wind Speed 9 mph    
Max Gust Speed -    
Visibility 9 miles    
Events Rain    
Averages and records for this station are not official NWS values.
T = Trace of Precipitation, MM = Missing Value Source: NWS Daily Summary

Daily Weather History Graph

Daily Weather History Graph

Search for Another Location

Airport or City:

Trip Planner

Search our weather history database for the weather conditions in past years. The results will help you decide how hot, cold, wet, or windy it might be!

Date:

Astronomy

Feb. 15, 2012 Rise Set
Actual Time 7:16 AM PST 5:44 PM PST
Civil Twilight 6:46 AM PST 6:14 PM PST
Nautical Twilight 6:12 AM PST 6:48 PM PST
Astronomical Twilight 5:39 AM PST 7:22 PM PST
Moon 2:23 AM PST (2/15) 11:36 AM PST (2/15)
Length of Visible Light 11h 27m
Length of Day
10h 27m
Last Quarter, 38% of the Moon is Illuminated
Feb 15
Last Quarter
Feb 21
New
Feb 29
First Quarter
Mar 8
Full
Mar 14
Last Quarter

Hourly Weather History & Observations

Time (PST) Temp. Windchill Dew Point Humidity Pressure Visibility Wind Dir Wind Speed Gust Speed Precip Events Conditions
12:15 AM 35.6 °F - 35.6 °F 100% 30.27 in 7.0 mi Calm Calm - 0.01 in Rain Light Rain
12:35 AM 35.6 °F 29.9 °F 35.6 °F 100% 30.26 in 10.0 mi ESE 6.9 mph - 0.01 in   Mostly Cloudy
12:55 AM 35.6 °F 29.2 °F 33.8 °F 93% 30.27 in 10.0 mi East 8.1 mph - 0.01 in   Scattered Clouds
1:15 AM 35.6 °F 29.9 °F 33.8 °F 93% 30.28 in 10.0 mi East 6.9 mph - N/A   Clear
1:35 AM 33.8 °F 27.7 °F 33.8 °F 100% 30.29 in 10.0 mi East 6.9 mph - N/A   Scattered Clouds
1:55 AM 33.8 °F 27.0 °F 33.8 °F 100% 30.30 in 10.0 mi East 8.1 mph - N/A   Scattered Clouds
2:15 AM 33.8 °F 27.0 °F 33.8 °F 100% 30.30 in 10.0 mi East 8.1 mph - N/A   Clear
2:35 AM 33.8 °F 27.0 °F 33.8 °F 100% 30.29 in 5.0 mi East 8.1 mph - N/A   Clear
2:55 AM 33.8 °F 27.0 °F 33.8 °F 100% 30.29 in 3.0 mi East 8.1 mph - N/A   Scattered Clouds
3:15 AM 33.8 °F 28.6 °F 33.8 °F 100% 30.28 in 10.0 mi ESE 5.8 mph - N/A   Scattered Clouds
3:35 AM 33.8 °F 30.8 °F 33.8 °F 100% 30.27 in 10.0 mi SSW 3.5 mph - N/A   Clear
3:55 AM 33.8 °F 28.6 °F 33.8 °F 100% 30.27 in 10.0 mi SSE 5.8 mph - N/A   Clear
4:15 AM 32.0 °F - 32.0 °F 100% 30.27 in 10.0 mi Calm Calm - N/A   Clear
4:35 AM 32.0 °F - 32.0 °F 100% 30.30 in 10.0 mi Calm Calm - N/A   Clear
4:55 AM 32.0 °F - 32.0 °F 100% 30.32 in 10.0 mi Calm Calm - N/A   Clear
5:15 AM 32.0 °F 27.5 °F 32.0 °F 100% 30.34 in 10.0 mi East 4.6 mph - N/A   Clear
5:35 AM 32.0 °F 28.7 °F 32.0 °F 100% 30.35 in 10.0 mi East 3.5 mph - N/A   Clear
5:55 AM 32.0 °F 28.7 °F 32.0 °F 100% 30.35 in 10.0 mi ESE 3.5 mph - N/A   Clear
6:15 AM 32.0 °F 27.5 °F 32.0 °F 100% 30.34 in 10.0 mi ESE 4.6 mph - N/A   Scattered Clouds
6:35 AM 33.8 °F 30.8 °F 32.0 °F 93% 30.33 in 10.0 mi East 3.5 mph - N/A   Mostly Cloudy
6:55 AM 33.8 °F 27.7 °F 33.8 °F 100% 30.34 in 10.0 mi East 6.9 mph - N/A   Overcast
7:15 AM 33.8 °F 28.6 °F 33.8 °F 100% 30.35 in 10.0 mi East 5.8 mph - N/A   Overcast
7:35 AM 33.8 °F 28.6 °F 32.0 °F 93% 30.36 in 10.0 mi East 5.8 mph - N/A   Mostly Cloudy
7:55 AM 33.8 °F 27.7 °F 33.8 °F 100% 30.38 in 10.0 mi East 6.9 mph - N/A   Mostly Cloudy
8:15 AM 33.8 °F 27.0 °F 33.8 °F 100% 30.38 in 7.0 mi East 8.1 mph - N/A   Mostly Cloudy
8:35 AM 33.8 °F 27.0 °F 33.8 °F 100% 30.39 in 5.0 mi East 8.1 mph - N/A   Scattered Clouds
8:55 AM 35.6 °F 29.2 °F 35.6 °F 100% 30.39 in 7.0 mi East 8.1 mph - N/A   Clear
9:15 AM 35.6 °F 29.9 °F 35.6 °F 100% 30.40 in 10.0 mi East 6.9 mph - N/A   Clear
9:35 AM 37.4 °F 31.4 °F 37.4 °F 100% 30.40 in 10.0 mi East 8.1 mph - N/A   Clear
9:55 AM 39.2 °F 34.2 °F 37.4 °F 93% 30.40 in 10.0 mi East 6.9 mph - N/A   Clear
10:15 AM 41.0 °F 36.4 °F 39.2 °F 93% 30.40 in 10.0 mi East 6.9 mph - N/A   Clear
10:35 AM 42.8 °F 39.3 °F 39.2 °F 87% 30.40 in 10.0 mi East 5.8 mph - N/A   Clear
10:55 AM 44.6 °F 42.2 °F 39.2 °F 81% 30.40 in 10.0 mi ESE 4.6 mph - N/A   Clear
11:15 AM 44.6 °F 42.2 °F 39.2 °F 81% 30.41 in 10.0 mi ESE 4.6 mph - N/A   Clear
11:35 AM 46.4 °F - 37.4 °F 71% 30.41 in 10.0 mi Calm Calm - N/A   Clear
11:55 AM 44.6 °F - 37.4 °F 76% 30.40 in 10.0 mi Calm Calm - N/A   Clear
12:55 PM 46.4 °F 44.3 °F 39.2 °F 76% 30.39 in 5.0 mi WSW 4.6 mph - N/A   Haze
1:15 PM 46.4 °F 44.3 °F 37.4 °F 71% 30.38 in 7.0 mi West 4.6 mph - N/A   Mostly Cloudy
1:35 PM 46.4 °F 45.2 °F 37.4 °F 71% 30.37 in 7.0 mi West 3.5 mph - N/A   Mostly Cloudy
1:55 PM 44.6 °F 43.1 °F 37.4 °F 76% 30.37 in 5.0 mi West 3.5 mph - N/A   Haze
2:15 PM 46.4 °F - 37.4 °F 71% 30.37 in 5.0 mi Calm Calm - N/A   Haze
2:35 PM 48.2 °F - 37.4 °F 66% 30.37 in 10.0 mi ENE 3.5 mph - N/A   Overcast
2:55 PM 48.2 °F - 37.4 °F 66% 30.36 in 10.0 mi East 4.6 mph - N/A   Overcast
3:15 PM 48.2 °F - 37.4 °F 66% 30.35 in 10.0 mi East 4.6 mph - N/A   Scattered Clouds
3:35 PM 50.0 °F - 37.4 °F 62% 30.35 in 10.0 mi ESE 5.8 mph - N/A   Scattered Clouds
3:55 PM 50.0 °F - 37.4 °F 62% 30.35 in 10.0 mi East 9.2 mph - N/A   Scattered Clouds
4:15 PM 48.2 °F - 35.6 °F 62% 30.35 in 10.0 mi East 6.9 mph - N/A   Clear
4:35 PM 46.4 °F 42.9 °F 35.6 °F 66% 30.35 in 10.0 mi East 6.9 mph - N/A   Clear
4:55 PM 44.6 °F 40.7 °F 35.6 °F 71% 30.36 in 10.0 mi East 6.9 mph - N/A   Clear
5:15 PM 44.6 °F 41.4 °F 35.6 °F 71% 30.36 in 10.0 mi East 5.8 mph - N/A   Clear
5:35 PM 42.8 °F 38.6 °F 35.6 °F 76% 30.36 in 10.0 mi East 6.9 mph - N/A   Clear
5:55 PM 41.0 °F 36.4 °F 35.6 °F 81% 30.35 in 10.0 mi East 6.9 mph - N/A   Clear
6:35 PM 41.0 °F 36.4 °F 35.6 °F 81% 30.36 in 10.0 mi East 6.9 mph - N/A   Clear
6:55 PM 41.0 °F 36.4 °F 35.6 °F 81% 30.37 in 10.0 mi ENE 6.9 mph - N/A   Clear
7:15 PM 39.2 °F 34.2 °F 35.6 °F 87% 30.37 in 10.0 mi East 6.9 mph - N/A   Clear
7:35 PM 39.2 °F 34.2 °F 35.6 °F 87% 30.37 in 10.0 mi East 6.9 mph - N/A   Clear
7:55 PM 39.2 °F 33.6 °F 35.6 °F 87% 30.37 in 10.0 mi East 8.1 mph - N/A   Clear
8:15 PM 39.2 °F 34.2 °F 35.6 °F 87% 30.38 in 10.0 mi East 6.9 mph - N/A   Clear
8:35 PM 37.4 °F 30.8 °F 35.6 °F 93% 30.37 in 10.0 mi East 9.2 mph - N/A   Clear
8:55 PM 37.4 °F 31.4 °F 35.6 °F 93% 30.37 in 10.0 mi East 8.1 mph - N/A   Clear
9:15 PM 37.4 °F 32.1 °F 35.6 °F 93% 30.37 in 10.0 mi East 6.9 mph - N/A   Clear
9:35 PM 37.4 °F 32.1 °F 35.6 °F 93% 30.36 in 10.0 mi East 6.9 mph - N/A   Clear
9:55 PM 37.4 °F 32.8 °F 35.6 °F 93% 30.37 in 10.0 mi East 5.8 mph - N/A   Clear
10:15 PM 37.4 °F 32.8 °F 35.6 °F 93% 30.37 in 10.0 mi East 5.8 mph - N/A   Clear
10:35 PM 37.4 °F 32.1 °F 35.6 °F 93% 30.36 in 10.0 mi East 6.9 mph - N/A   Clear
10:55 PM 37.4 °F 31.4 °F 33.8 °F 87% 30.35 in 10.0 mi East 8.1 mph - N/A   Clear
11:15 PM 37.4 °F 31.4 °F 33.8 °F 87% 30.34 in 10.0 mi East 8.1 mph - N/A   Clear
11:35 PM 37.4 °F 30.8 °F 33.8 °F 87% 30.34 in 10.0 mi East 9.2 mph - N/A   Clear
11:55 PM 37.4 °F 32.1 °F 33.8 °F 87% 30.34 in 10.0 mi East 6.9 mph - N/A   Clear